Zurück zum Katalog

CZ-6A DEB

AktivSSO
NORAD 54411·DEBRIS·🇨🇳 China

Gestartet Nov 11, 2022 von Taiyuan Satellite Launch Center

Loading…

Nächste Überflüge (nächste 24 Stunden)

TLE

AktuellSource: Space-Track

Epoche: Sep 14, 2026, 11:59 UTC

1 54411U 22151EK  26257.49956497  .00001258  00000-0  40260-3 0  9992
2 54411  98.7055 282.4057 0203506  48.2703 313.5685 14.30233752199672

Verfolge CZ-6A DEB in Echtzeit mit AllMySat

Download on the App Store